Date String (YYYY-MM-DD hh:mm:ss) UTC,Instrument flags,Ambient pressure (hPa),Sample flow (lpm),Bypass flow (lpm),Sample temperature (°C),Ambient temperature (°C),ASC tube jacket temperature (°C),LED temperature (°C),Box temperature (°C),Sample RH (%),Span deviation,Mass concentration (μg/m³),Mass concentration (μg/m³),Mass concentration (μg/m³)
DateTimeUTC,F1_M11,P_M11,Q1_M11,Q2_M11,T1_M11,T2_M11,T3_M11,T4_M11,T5_M11,U1_M11,ZSPAN_M11,X0_M11,X2_M11,X1_M11
2022-11-05 08:00:00,,0815.3,5.00,0.00,23.2,21.6,00.0,32.0,25.0,11.2,0000.0,0007.11,0003.88,0003.55
2022-11-05 08:01:00,,0815.2,5.00,0.00,23.2,21.6,00.0,32.0,25.0,11.2,0000.0,0006.60,0003.65,0003.33
2022-11-05 08:02:00,,0815.1,5.00,0.00,23.2,21.6,00.0,32.0,25.0,11.3,0000.0,0006.26,0003.49,0003.18
2022-11-05 08:03:00,,0815.1,5.01,0.00,23.2,21.6,00.0,32.0,25.0,11.4,0000.0,0006.34,0003.33,0002.95
2022-11-05 08:04:00,,0815.1,5.00,0.00,23.1,21.5,00.0,32.0,24.9,11.5,0000.0,0005.04,0003.11,0002.64
2022-11-05 08:05:00,,0815.2,5.00,0.00,23.1,21.5,00.0,32.0,24.9,11.8,0000.0,0004.70,0002.86,0002.39
2022-11-05 08:06:00,,0815.1,4.99,0.00,23.1,21.5,00.0,32.0,24.9,12.0,0000.0,0004.81,0002.62,0002.14
2022-11-05 08:07:00,,0815.0,5.00,0.00,23.1,21.5,00.0,32.0,24.9,11.9,0000.0,0004.73,0002.35,0001.91
2022-11-05 08:08:00,,0815.1,5.00,0.00,23.1,21.5,00.0,31.9,24.9,11.7,0000.0,0004.47,0002.10,0001.69
2022-11-05 08:09:00,,0815.1,4.99,0.00,23.1,21.5,00.0,31.9,24.9,11.5,0000.0,0004.24,0001.87,0001.43
2022-11-05 08:10:00,,0815.1,5.01,0.00,23.1,21.5,00.0,31.9,24.9,11.8,0000.0,0004.06,0001.71,0001.33
2022-11-05 08:11:00,,0815.1,5.00,0.00,23.1,21.5,00.0,31.9,24.9,11.8,0000.0,0005.72,0001.55,0001.16
2022-11-05 08:12:00,,0815.0,5.01,0.00,23.1,21.5,00.0,31.9,24.9,11.6,0000.0,0006.19,0001.45,0001.03
2022-11-05 08:13:00,,0814.9,5.01,0.00,23.0,21.5,00.0,31.9,24.9,11.6,0000.0,0006.05,0001.31,0000.86
2022-11-05 08:14:00,,0815.1,4.98,0.00,23.0,21.4,00.0,31.9,24.9,11.5,0000.0,0005.50,0001.23,0000.79
2022-11-05 08:15:00,,0815.2,5.01,0.00,23.0,21.5,00.0,31.9,24.9,11.7,0000.0,0005.63,0001.23,0000.77
2022-11-05 08:16:00,,0815.1,5.01,0.00,23.0,21.5,00.0,31.9,24.9,12.8,0000.0,0006.71,0001.55,0001.09
2022-11-05 08:17:00,,0815.2,4.99,0.00,23.0,21.4,00.0,31.9,24.9,13.4,0000.0,0007.05,0002.24,0001.77
2022-11-05 08:18:00,,0815.2,5.00,0.00,23.0,21.3,00.0,31.8,24.8,13.7,0000.0,0007.59,0003.03,0002.52
2022-11-05 08:19:00,,0815.1,5.01,0.00,22.9,21.2,00.0,31.8,24.8,13.8,0000.0,0008.58,0003.59,0003.23
2022-11-05 08:20:00,,0815.1,5.01,0.00,22.9,21.2,00.0,31.8,24.8,13.9,0000.0,0009.57,0004.19,0003.75
2022-11-05 08:21:00,,0815.0,5.00,0.00,22.9,21.1,00.0,31.8,24.7,14.0,-000.1,0010.42,0004.77,0004.29
2022-11-05 08:22:00,,0814.9,5.00,0.00,22.8,21.0,00.0,31.8,24.7,14.1,-002.5,0010.76,0005.35,0004.82
2022-11-05 08:23:00,,0814.9,5.00,0.00,22.8,20.9,00.0,31.8,24.6,14.1,-002.4,0010.83,0005.88,0005.34
2022-11-05 08:24:00,,0815.0,5.00,0.00,22.8,20.9,00.0,31.7,24.6,14.0,-002.3,0011.38,0006.41,0005.85
2022-11-05 08:25:00,,0815.0,5.01,0.00,22.7,20.8,00.0,31.7,24.5,14.1,-002.4,0011.93,0006.93,0006.38
2022-11-05 08:26:00,,0815.1,4.99,0.00,22.7,20.7,00.0,31.7,24.5,14.1,-002.1,0012.68,0007.44,0006.90
2022-11-05 08:27:00,,0815.3,5.00,0.00,22.7,20.6,00.0,31.7,24.4,14.0,-002.0,0013.05,0007.81,0007.26
2022-11-05 08:28:00,,0815.1,5.02,0.00,22.6,20.4,00.0,31.6,24.3,14.0,-001.8,0013.40,0007.95,0007.41
2022-11-05 08:29:00,,0815.1,5.00,0.00,22.6,20.4,00.0,31.6,24.3,14.1,-001.9,0013.34,0007.98,0007.44
2022-11-05 08:30:00,,0815.2,5.00,0.00,22.5,20.4,00.0,31.5,24.3,14.1,-001.6,0012.85,0007.96,0007.44
2022-11-05 08:31:00,,0815.2,5.00,0.00,22.5,20.5,00.0,31.5,24.3,13.9,-001.5,0012.32,0007.81,0007.39
2022-11-05 08:32:00,,0815.1,5.00,0.00,22.5,20.6,00.0,31.5,24.3,13.6,-001.1,0011.89,0007.64,0007.25
2022-11-05 08:33:00,,0815.0,5.00,0.00,22.5,20.6,00.0,31.5,24.3,13.4,-000.8,0011.15,0007.46,0007.10
2022-11-05 08:34:00,,0815.1,5.00,0.00,22.5,20.6,00.0,31.4,24.2,13.3,-000.5,0011.00,0007.32,0006.98
2022-11-05 08:35:00,,0814.9,5.00,0.00,22.4,20.5,00.0,31.4,24.2,13.2,-000.2,0010.80,0007.15,0006.81
2022-11-05 08:36:00,,0814.9,5.00,0.00,22.4,20.5,00.0,31.4,24.2,12.9,0000.3,0010.61,0006.87,0006.53
2022-11-05 08:37:00,,0814.9,5.00,0.00,22.4,20.6,00.0,31.4,24.2,13.5,0000.1,0010.15,0006.72,0006.38
2022-11-05 08:38:00,,0814.9,4.98,0.00,22.4,20.6,00.0,31.3,24.2,13.3,0000.4,0009.46,0006.56,0006.25
2022-11-05 08:39:00,,0814.9,5.00,0.00,22.4,20.6,00.0,31.3,24.2,13.0,0000.6,0009.15,0006.35,0006.02
2022-11-05 08:40:00,,0814.9,5.00,0.00,22.4,20.6,00.0,31.3,24.2,13.1,0000.6,0009.02,0006.18,0005.85
2022-11-05 08:41:00,,0814.9,5.01,0.00,22.4,20.7,00.0,31.3,24.2,13.3,0000.4,0008.99,0006.09,0005.78
2022-11-05 08:42:00,,0814.8,5.00,0.00,22.4,20.7,00.0,31.3,24.2,13.4,0000.5,0008.96,0006.03,0005.71
2022-11-05 08:43:00,,0814.9,5.00,0.00,22.4,20.7,00.0,31.3,24.2,13.6,-000.0,0009.34,0006.05,0005.73
2022-11-05 08:44:00,,0815.2,4.99,0.00,22.4,20.7,00.0,31.2,24.2,13.6,-000.4,0009.63,0006.07,0005.76
2022-11-05 08:45:00,,0814.9,5.00,0.00,22.4,20.8,00.0,31.2,24.2,13.7,-000.4,0009.71,0006.12,0005.79
2022-11-05 08:46:00,,0814.5,5.00,0.00,22.4,20.8,00.0,31.2,24.2,13.4,-000.4,0009.77,0006.17,0005.82
2022-11-05 08:47:00,,0815.1,5.00,0.00,22.3,20.7,00.0,31.2,24.2,13.4,-001.1,0009.88,0006.31,0005.94
2022-11-05 08:48:00,,0815.1,4.99,0.00,22.4,20.7,00.0,31.2,24.2,13.8,-001.3,0010.00,0006.42,0006.05
2022-11-05 08:49:00,,0815.1,5.01,0.00,22.4,21.3,00.0,31.2,24.4,14.0,-001.7,0010.09,0006.50,0006.12
2022-11-05 08:50:00,,0815.0,5.01,0.00,22.5,22.0,00.0,31.2,24.6,13.9,-002.0,0010.20,0006.67,0006.30
2022-11-05 08:51:00,,0814.8,4.98,0.00,22.6,22.1,00.0,31.2,24.6,13.7,-002.1,0010.21,0006.79,0006.44
2022-11-05 08:52:00,,0814.5,5.02,0.00,22.6,21.8,00.0,31.2,24.6,13.7,-001.6,0010.15,0006.83,0006.49
2022-11-05 08:53:00,,0814.5,4.99,0.00,22.6,21.7,00.0,31.3,24.6,13.5,-001.5,0010.22,0006.86,0006.54
2022-11-05 08:54:00,,0814.4,4.99,0.00,22.6,21.6,00.0,31.3,24.6,13.5,-001.5,0009.88,0006.88,0006.56
2022-11-05 08:55:00,,0814.4,5.01,0.00,22.6,21.6,00.0,31.3,24.6,13.2,-001.2,0009.71,0006.91,0006.58
2022-11-05 08:56:00,,0814.4,5.01,0.00,22.6,21.5,00.0,31.3,24.5,13.0,-000.9,0009.64,0006.84,0006.53
2022-11-05 08:57:00,,0814.4,4.98,0.00,22.6,21.3,00.0,31.3,24.5,13.3,-000.6,0009.75,0006.86,0006.55
2022-11-05 08:58:00,,0814.4,5.01,0.00,22.6,21.2,00.0,31.3,24.5,13.6,-000.5,0010.15,0006.99,0006.67
2022-11-05 08:59:00,,0814.5,5.00,0.00,22.6,21.1,00.0,31.3,24.5,13.7,-000.4,0010.12,0007.03,0006.71
